| time (UTC) | temp F | wind direction | speed MPH | gust MPH | rain 1hr in | rain 24hr in | rain mn in | humidity % | barometer mb |
| 20260901054803 | 58 | 269 | 6.0 | 10.0 | 0.00 | 0.00 | 0.00 | 93 | 1013.1 |
| 20260901054203 | 58 | 268 | 5.0 | 8.0 | 0.00 | 0.00 | 0.00 | 93 | 1013.2 |
| 20260901053603 | 58 | 269 | 6.0 | 11.0 | 0.00 | 0.00 | 0.00 | 92 | 1013.2 |
| 20260901053003 | 58 | 268 | 6.0 | 10.0 | 0.00 | 0.00 | 0.00 | 92 | 1013.3 |
| 20260901052403 | 58 | 269 | 6.0 | 10.0 | 0.00 | 0.00 | 0.00 | 92 | 1013.3 |
| 20260901051803 | 58 | 269 | 5.0 | 10.0 | 0.00 | 0.00 | 0.00 | 92 | 1013.3 |
| 20260901051203 | 58 | 270 | 5.0 | 9.0 | 0.00 | 0.00 | 0.00 | 91 | 1013.3 |
| 20260901050603 | 58 | 268 | 5.0 | 10.0 | 0.00 | 0.00 | 0.00 | 91 | 1013.3 |
| 20260901050003 | 58 | 268 | 5.0 | 13.0 | 0.00 | 0.00 | 0.00 | 91 | 1013.3 |
| 20260901045403 | 58 | 271 | 5.0 | 13.0 | 0.00 | 0.00 | 0.00 | 92 | 1013.3 |
| 20260901044803 | 58 | 268 | 6.0 | 9.0 | 0.00 | 0.00 | 0.00 | 92 | 1013.1 |
| 20260901044203 | 58 | 268 | 6.0 | 11.0 | 0.00 | 0.00 | 0.00 | 93 | 1013.1 |
| 20260901043603 | 58 | 268 | 6.0 | 11.0 | 0.00 | 0.00 | 0.00 | 92 | 1013.1 |
| 20260901043003 | 58 | 268 | 6.0 | 9.0 | 0.00 | 0.00 | 0.00 | 92 | 1013.2 |
| 20260901042403 | 58 | 269 | 6.0 | 12.0 | 0.00 | 0.00 | 0.00 | 93 | 1013.1 |
| 20260901041803 | 58 | 270 | 7.0 | 12.0 | 0.00 | 0.00 | 0.00 | 93 | 1013.0 |
| 20260901041203 | 58 | 265 | 6.0 | 11.0 | 0.00 | 0.00 | 0.00 | 92 | 1013.0 |
| 20260901040604 | 58 | 269 | 6.0 | 11.0 | 0.00 | 0.00 | 0.00 | 92 | 1012.9 |
| 20260901040004 | 58 | 272 | 7.0 | 11.0 | 0.00 | 0.00 | 0.00 | 92 | 1012.9 |
| 20260901035404 | 58 | 269 | 8.0 | 14.0 | 0.00 | 0.00 | 0.00 | 91 | 1012.9 |
| 20260901034804 | 58 | 269 | 7.0 | 14.0 | 0.00 | 0.00 | 0.00 | 91 | 1012.7 |
| 20260901034204 | 58 | 271 | 6.0 | 11.0 | 0.00 | 0.00 | 0.00 | 90 | 1012.7 |
| 20260901033604 | 58 | 273 | 6.0 | 11.0 | 0.00 | 0.00 | 0.00 | 90 | 1012.6 |
| 20260901033004 | 58 | 268 | 6.0 | 12.0 | 0.00 | 0.00 | 0.00 | 90 | 1012.6 |
| 20260901032403 | 58 | 269 | 7.0 | 12.0 | 0.00 | 0.00 | 0.00 | 89 | 1012.5 |
| 20260901031803 | 58 | 269 | 8.0 | 12.0 | 0.00 | 0.00 | 0.00 | 89 | 1012.4 |
| 20260901031203 | 58 | 269 | 7.0 | 12.0 | 0.00 | 0.00 | 0.00 | 89 | 1012.4 |
| 20260901030603 | 58 | 266 | 6.0 | 12.0 | 0.00 | 0.00 | 0.00 | 89 | 1012.3 |
| 20260901030003 | 58 | 264 | 6.0 | 13.0 | 0.00 | 0.00 | 0.00 | 89 | 1012.2 |
| 20260901025403 | 58 | 265 | 7.0 | 13.0 | 0.00 | 0.00 | 0.00 | 89 | 1012.2 |
| 20260901024803 | 59 | 266 | 8.0 | 13.0 | 0.00 | 0.00 | 0.00 | 89 | 1012.2 |
| 20260901024203 | 59 | 267 | 7.0 | 13.0 | 0.00 | 0.00 | 0.00 | 88 | 1012.3 |
| 20260901023603 | 59 | 269 | 7.0 | 13.0 | 0.00 | 0.00 | 0.00 | 87 | 1012.3 |
| 20260901023003 | 59 | 268 | 7.0 | 13.0 | 0.00 | 0.00 | 0.00 | 87 | 1012.3 |
| 20260901022403 | 59 | 264 | 7.0 | 15.0 | 0.00 | 0.00 | 0.00 | 88 | 1012.2 |
| 20260901021803 | 59 | 265 | 8.0 | 17.0 | 0.00 | 0.00 | 0.00 | 87 | 1012.2 |
| 20260901021203 | 60 | 269 | 8.0 | 17.0 | 0.00 | 0.00 | 0.00 | 88 | 1012.2 |
| 20260901020603 | 60 | 271 | 8.0 | 12.0 | 0.00 | 0.00 | 0.00 | 88 | 1012.2 |
| 20260901020003 | 60 | 271 | 7.0 | 14.0 | 0.00 | 0.00 | 0.00 | 87 | 1012.2 |
| 20260901015403 | 60 | 269 | 6.0 | 12.0 | 0.00 | 0.00 | 0.00 | 86 | 1012.2 |
| 20260901014804 | 60 | 270 | 6.0 | 11.0 | 0.00 | 0.00 | 0.00 | 87 | 1012.3 |
| 20260901014204 | 60 | 265 | 8.0 | 16.0 | 0.00 | 0.00 | 0.00 | 87 | 1012.4 |
| 20260901013604 | 60 | 264 | 9.0 | 16.0 | 0.00 | 0.00 | 0.00 | 86 | 1012.3 |
| 20260901013004 | 60 | 264 | 9.0 | 15.0 | 0.00 | 0.00 | 0.00 | 85 | 1012.2 |
| 20260901012404 | 61 | 268 | 9.0 | 15.0 | 0.00 | 0.00 | 0.00 | 84 | 1012.3 |
| 20260901011803 | 61 | 268 | 9.0 | 14.0 | 0.00 | 0.00 | 0.00 | 84 | 1012.2 |
| 20260901011203 | 61 | 267 | 10.0 | 17.0 | 0.00 | 0.00 | 0.00 | 85 | 1012.2 |
| 20260901010603 | 60 | 265 | 10.0 | 17.0 | 0.00 | 0.00 | 0.00 | 86 | 1012.2 |
| 20260901010004 | 60 | 264 | 10.0 | 15.0 | 0.00 | 0.00 | 0.00 | 86 | 1012.2 |
| 20260901005403 | 60 | 265 | 11.0 | 17.0 | 0.00 | 0.00 | 0.00 | 87 | 1012.2 |
| 20260901004803 | 60 | 264 | 11.0 | 17.0 | 0.00 | 0.00 | 0.00 | 87 | 1012.2 |
| 20260901004203 | 60 | 263 | 10.0 | 16.0 | 0.00 | 0.00 | 0.00 | 87 | 1012.2 |
| 20260901003603 | 60 | 263 | 10.0 | 17.0 | 0.00 | 0.00 | 0.00 | 87 | 1012.2 |
| 20260901003003 | 60 | 267 | 10.0 | 17.0 | 0.00 | 0.00 | 0.00 | 87 | 1012.3 |
| 20260901002403 | 60 | 268 | 10.0 | 17.0 | 0.00 | 0.00 | 0.00 | 87 | 1012.3 |
| 20260901001803 | 60 | 267 | 10.0 | 15.0 | 0.00 | 0.00 | 0.00 | 88 | 1012.3 |
| 20260901001203 | 60 | 269 | 9.0 | 14.0 | 0.00 | 0.00 | 0.00 | 90 | 1012.3 |
| 20260901000603 | 60 | 269 | 10.0 | 16.0 | 0.00 | 0.00 | 0.00 | 91 | 1012.3 |
| 20260901000004 | 60 | 269 | 10.0 | 18.0 | 0.00 | 0.00 | 0.00 | 91 | 1012.5 |
| 20260831235403 | 60 | 272 | 10.0 | 18.0 | 0.00 | 0.00 | 0.00 | 91 | 1012.5 |
| 20260831234803 | 60 | 271 | 9.0 | 14.0 | 0.00 | 0.00 | 0.00 | 91 | 1012.5 |
| 20260831234203 | 60 | 269 | 9.0 | 14.0 | 0.00 | 0.00 | 0.00 | 91 | 1012.5 |
| 20260831233603 | 60 | 267 | 9.0 | 15.0 | 0.00 | 0.00 | 0.00 | 91 | 1012.6 |
| 20260831233004 | 60 | 269 | 10.0 | 17.0 | 0.00 | 0.00 | 0.00 | 90 | 1012.5 |
| 20260831232404 | 60 | 270 | 9.0 | 15.0 | 0.00 | 0.00 | 0.00 | 90 | 1012.4 |
| 20260831231804 | 60 | 269 | 9.0 | 15.0 | 0.00 | 0.00 | 0.00 | 90 | 1012.5 |
| 20260831231204 | 60 | 268 | 9.0 | 15.0 | 0.00 | 0.00 | 0.00 | 90 | 1012.6 |
| 20260831230603 | 60 | 268 | 9.0 | 17.0 | 0.00 | 0.00 | 0.00 | 90 | 1012.7 |
| 20260831230004 | 60 | 270 | 9.0 | 17.0 | 0.00 | 0.00 | 0.00 | 90 | 1012.7 |
| 20260831225403 | 60 | 267 | 9.0 | 15.0 | 0.00 | 0.00 | 0.00 | 90 | 1012.8 |
| 20260831224803 | 60 | 266 | 10.0 | 15.0 | 0.00 | 0.00 | 0.00 | 90 | 1012.8 |
| 20260831224203 | 60 | 269 | 10.0 | 15.0 | 0.00 | 0.00 | 0.00 | 90 | 1012.8 |
| 20260831223603 | 60 | 268 | 10.0 | 17.0 | 0.00 | 0.00 | 0.00 | 90 | 1012.8 |
| 20260831223003 | 60 | 268 | 10.0 | 17.0 | 0.00 | 0.00 | 0.00 | 89 | 1012.9 |
| 20260831222403 | 61 | 269 | 9.0 | 14.0 | 0.00 | 0.00 | 0.00 | 88 | 1012.9 |
| 20260831221803 | 61 | 269 | 10.0 | 18.0 | 0.00 | 0.00 | 0.00 | 89 | 1013.0 |
| 20260831221203 | 61 | 268 | 10.0 | 18.0 | 0.00 | 0.00 | 0.00 | 89 | 1013.0 |
| 20260831220603 | 61 | 268 | 10.0 | 17.0 | 0.00 | 0.00 | 0.00 | 89 | 1013.1 |
| 20260831220003 | 60 | 268 | 10.0 | 17.0 | 0.00 | 0.00 | 0.00 | 89 | 1013.1 |
| 20260831215403 | 60 | 268 | 9.0 | 16.0 | 0.00 | 0.00 | 0.00 | 90 | 1013.2 |
| 20260831214803 | 60 | 268 | 9.0 | 15.0 | 0.00 | 0.00 | 0.00 | 90 | 1013.3 |
| 20260831214203 | 60 | 269 | 10.0 | 15.0 | 0.00 | 0.00 | 0.00 | 90 | 1013.2 |
| 20260831213603 | 60 | 268 | 10.0 | 15.0 | 0.00 | 0.00 | 0.00 | 90 | 1013.3 |
| 20260831213003 | 60 | 269 | 10.0 | 15.0 | 0.00 | 0.00 | 0.00 | 90 | 1013.3 |
| 20260831212403 | 60 | 269 | 10.0 | 15.0 | 0.00 | 0.00 | 0.00 | 89 | 1013.4 |
| 20260831211804 | 60 | 269 | 9.0 | 14.0 | 0.00 | 0.00 | 0.00 | 90 | 1013.5 |
| 20260831211204 | 60 | 269 | 10.0 | 14.0 | 0.00 | 0.00 | 0.00 | 90 | 1013.5 |
| 20260831210604 | 60 | 271 | 10.0 | 16.0 | 0.00 | 0.00 | 0.00 | 90 | 1013.5 |
| 20260831210005 | 60 | 271 | 10.0 | 16.0 | 0.00 | 0.00 | 0.00 | 90 | 1013.6 |
| 20260831205403 | 60 | 267 | 10.0 | 16.0 | 0.00 | 0.00 | 0.00 | 91 | 1013.5 |
| 20260831204804 | 59 | 269 | 10.0 | 16.0 | 0.00 | 0.00 | 0.00 | 91 | 1013.5 |
| 20260831204203 | 59 | 271 | 10.0 | 16.0 | 0.00 | 0.00 | 0.00 | 90 | 1013.5 |
| 20260831203603 | 60 | 269 | 9.0 | 15.0 | 0.00 | 0.00 | 0.00 | 91 | 1013.4 |
| 20260831203003 | 59 | 269 | 10.0 | 16.0 | 0.00 | 0.00 | 0.00 | 91 | 1013.5 |
| 20260831202403 | 59 | 269 | 10.0 | 16.0 | 0.00 | 0.00 | 0.00 | 91 | 1013.4 |
| 20260831201803 | 59 | 270 | 10.0 | 16.0 | 0.00 | 0.00 | 0.00 | 92 | 1013.4 |
| 20260831201203 | 59 | 269 | 10.0 | 16.0 | 0.00 | 0.00 | 0.00 | 92 | 1013.4 |
| 20260831200603 | 59 | 268 | 9.0 | 13.0 | 0.00 | 0.00 | 0.00 | 92 | 1013.4 |
| 20260831200003 | 58 | 270 | 8.0 | 14.0 | 0.00 | 0.00 | 0.00 | 92 | 1013.4 |
| 20260831195403 | 58 | 270 | 8.0 | 14.0 | 0.00 | 0.00 | 0.00 | 93 | 1013.5 |
| 20260831194803 | 58 | 272 | 8.0 | 12.0 | 0.00 | 0.00 | 0.00 | 93 | 1013.5 |
| 20260831194203 | 58 | 270 | 9.0 | 14.0 | 0.00 | 0.00 | 0.00 | 93 | 1013.5 |
| 20260831193603 | 58 | 270 | 9.0 | 14.0 | 0.00 | 0.00 | 0.00 | 93 | 1013.6 |
| 20260831193003 | 58 | 269 | 9.0 | 13.0 | 0.00 | 0.00 | 0.00 | 93 | 1013.6 |
| 20260831192403 | 58 | 270 | 9.0 | 14.0 | 0.00 | 0.00 | 0.00 | 93 | 1013.6 |
| 20260831191803 | 58 | 269 | 9.0 | 14.0 | 0.00 | 0.00 | 0.00 | 92 | 1013.6 |
| 20260831191203 | 58 | 266 | 9.0 | 15.0 | 0.00 | 0.00 | 0.00 | 92 | 1013.6 |
| 20260831190004 | 58 | 266 | 10.0 | 16.0 | 0.00 | 0.00 | 0.00 | 91 | 1013.6 |
| 20260831185404 | 58 | 269 | 10.0 | 17.0 | 0.00 | 0.00 | 0.00 | 92 | 1013.6 |
| 20260831184804 | 58 | 271 | 10.0 | 17.0 | 0.00 | 0.00 | 0.00 | 92 | 1013.6 |
| 20260831184204 | 58 | 270 | 10.0 | 17.0 | 0.00 | 0.00 | 0.00 | 92 | 1013.5 |
| 20260831183603 | 58 | 268 | 10.0 | 17.0 | 0.00 | 0.00 | 0.00 | 93 | 1013.4 |
| 20260831183003 | 57 | 269 | 10.0 | 18.0 | 0.00 | 0.00 | 0.00 | 93 | 1013.5 |
| 20260831182404 | 57 | 270 | 9.0 | 16.0 | 0.00 | 0.00 | 0.00 | 93 | 1013.4 |
| 20260831181803 | 57 | 268 | 9.0 | 16.0 | 0.00 | 0.00 | 0.00 | 93 | 1013.5 |
| 20260831181203 | 57 | 269 | 9.0 | 17.0 | 0.00 | 0.00 | 0.00 | 94 | 1013.5 |
| 20260831180603 | 56 | 268 | 9.0 | 17.0 | 0.00 | 0.00 | 0.00 | 94 | 1013.5 |
| 20260831180003 | 56 | 268 | 9.0 | 15.0 | 0.00 | 0.00 | 0.00 | 94 | 1013.5 |
| 20260831175403 | 56 | 269 | 9.0 | 16.0 | 0.00 | 0.00 | 0.00 | 94 | 1013.5 |
| 20260831174803 | 56 | 268 | 9.0 | 16.0 | 0.00 | 0.00 | 0.00 | 94 | 1013.4 |
| 20260831174203 | 56 | 268 | 8.0 | 15.0 | 0.00 | 0.00 | 0.00 | 94 | 1013.4 |
| 20260831173603 | 56 | 270 | 9.0 | 15.0 | 0.00 | 0.00 | 0.00 | 94 | 1013.4 |
| 20260831173003 | 56 | 270 | 9.0 | 15.0 | 0.00 | 0.00 | 0.00 | 94 | 1013.4 |
| 20260831172403 | 56 | 270 | 9.0 | 15.0 | 0.00 | 0.00 | 0.00 | 94 | 1013.2 |
| 20260831171803 | 55 | 267 | 10.0 | 14.0 | 0.00 | 0.00 | 0.00 | 94 | 1013.3 |
| 20260831171203 | 55 | 270 | 10.0 | 15.0 | 0.00 | 0.00 | 0.00 | 94 | 1013.3 |
| 20260831170603 | 55 | 270 | 10.0 | 17.0 | 0.00 | 0.00 | 0.00 | 95 | 1013.1 |
| 20260831170003 | 55 | 269 | 10.0 | 17.0 | 0.00 | 0.00 | 0.00 | 95 | 1013.0 |
| 20260831165404 | 55 | 269 | 10.0 | 16.0 | 0.00 | 0.00 | 0.00 | 95 | 1013.0 |
| 20260831164804 | 55 | 267 | 11.0 | 17.0 | 0.00 | 0.00 | 0.00 | 95 | 1012.9 |
| 20260831164204 | 55 | 266 | 12.0 | 20.0 | 0.00 | 0.00 | 0.00 | 95 | 1012.7 |
| 20260831163604 | 55 | 266 | 12.0 | 18.0 | 0.00 | 0.00 | 0.00 | 94 | 1012.6 |
| 20260831163004 | 55 | 269 | 13.0 | 19.0 | 0.00 | 0.00 | 0.00 | 94 | 1012.7 |
| 20260831162403 | 55 | 266 | 12.0 | 19.0 | 0.00 | 0.00 | 0.00 | 94 | 1012.6 |
| 20260831161803 | 55 | 265 | 12.0 | 20.0 | 0.00 | 0.00 | 0.00 | 94 | 1012.5 |
| 20260831161204 | 55 | 265 | 12.0 | 20.0 | 0.00 | 0.00 | 0.00 | 95 | 1012.5 |
| 20260831160603 | 55 | 264 | 12.0 | 19.0 | 0.00 | 0.00 | 0.00 | 95 | 1012.4 |
| 20260831155403 | 55 | 266 | 12.0 | 18.0 | 0.00 | 0.00 | 0.00 | 95 | 1012.4 |
| 20260831154803 | 55 | 269 | 12.0 | 23.0 | 0.00 | 0.00 | 0.00 | 95 | 1012.6 |
| 20260831154203 | 55 | 267 | 12.0 | 22.0 | 0.00 | 0.00 | 0.00 | 95 | 1012.6 |
| 20260831153603 | 55 | 266 | 12.0 | 18.0 | 0.00 | 0.00 | 0.00 | 96 | 1012.4 |
| 20260831153003 | 55 | 271 | 11.0 | 15.0 | 0.00 | 0.00 | 0.00 | 96 | 1012.4 |
| 20260831152403 | 55 | 270 | 10.0 | 17.0 | 0.00 | 0.00 | 0.00 | 96 | 1012.4 |
| 20260831151803 | 55 | 267 | 10.0 | 17.0 | 0.00 | 0.00 | 0.00 | 97 | 1012.4 |
| 20260831151203 | 55 | 270 | 9.0 | 15.0 | 0.00 | 0.00 | 0.00 | 97 | 1012.4 |
| 20260831150603 | 55 | 267 | 9.0 | 13.0 | 0.00 | 0.00 | 0.00 | 97 | 1012.4 |
| 20260831150003 | 55 | 270 | 10.0 | 16.0 | 0.00 | 0.00 | 0.00 | 97 | 1012.4 |
| 20260831145403 | 55 | 269 | 10.0 | 16.0 | 0.00 | 0.00 | 0.00 | 97 | 1012.3 |
| 20260831144803 | 54 | 270 | 10.0 | 16.0 | 0.00 | 0.00 | 0.00 | 97 | 1012.2 |
| 20260831144203 | 54 | 268 | 10.0 | 16.0 | 0.00 | 0.00 | 0.00 | 97 | 1012.2 |
| 20260831143604 | 54 | 267 | 10.0 | 16.0 | 0.00 | 0.00 | 0.00 | 97 | 1012.0 |
| 20260831143004 | 54 | 265 | 10.0 | 16.0 | 0.00 | 0.00 | 0.00 | 97 | 1012.0 |
| 20260831142404 | 54 | 264 | 10.0 | 14.0 | 0.00 | 0.00 | 0.00 | 97 | 1011.9 |
| 20260831141804 | 54 | 267 | 9.0 | 14.0 | 0.00 | 0.00 | 0.00 | 97 | 1011.9 |
| 20260831141203 | 54 | 267 | 9.0 | 17.0 | 0.00 | 0.00 | 0.00 | 97 | 1011.9 |
| 20260831140603 | 54 | 268 | 8.0 | 17.0 | 0.00 | 0.00 | 0.00 | 97 | 1011.8 |
| 20260831140004 | 54 | 267 | 7.0 | 12.0 | 0.00 | 0.00 | 0.00 | 97 | 1011.9 |
| 20260831135403 | 54 | 266 | 8.0 | 12.0 | 0.00 | 0.00 | 0.00 | 97 | 1011.8 |
| 20260831134804 | 54 | 268 | 9.0 | 16.0 | 0.00 | 0.00 | 0.00 | 97 | 1011.7 |
| 20260831134203 | 54 | 268 | 10.0 | 16.0 | 0.00 | 0.00 | 0.00 | 97 | 1011.6 |
| 20260831133603 | 54 | 267 | 9.0 | 15.0 | 0.00 | 0.00 | 0.00 | 97 | 1011.5 |
| 20260831133003 | 54 | 264 | 10.0 | 18.0 | 0.00 | 0.00 | 0.00 | 97 | 1011.5 |
| 20260831132403 | 54 | 265 | 10.0 | 18.0 | 0.00 | 0.00 | 0.00 | 96 | 1011.6 |
| 20260831131203 | 54 | 267 | 10.0 | 16.0 | 0.00 | 0.00 | 0.00 | 97 | 1011.5 |
| 20260831130603 | 54 | 268 | 11.0 | 17.0 | 0.00 | 0.00 | 0.00 | 96 | 1011.4 |
| 20260831130003 | 54 | 268 | 11.0 | 18.0 | 0.00 | 0.00 | 0.00 | 96 | 1011.3 |
| 20260831125403 | 54 | 270 | 11.0 | 17.0 | 0.00 | 0.00 | 0.00 | 96 | 1011.4 |
| 20260831124803 | 54 | 268 | 10.0 | 17.0 | 0.00 | 0.00 | 0.00 | 96 | 1011.3 |
| 20260831124203 | 54 | 269 | 10.0 | 16.0 | 0.00 | 0.00 | 0.00 | 96 | 1011.3 |
| 20260831123603 | 54 | 271 | 10.0 | 16.0 | 0.00 | 0.00 | 0.00 | 96 | 1011.3 |
| 20260831123003 | 55 | 272 | 10.0 | 16.0 | 0.00 | 0.00 | 0.00 | 96 | 1011.3 |
| 20260831122404 | 55 | 271 | 10.0 | 16.0 | 0.00 | 0.00 | 0.00 | 96 | 1011.4 |
| 20260831121804 | 55 | 273 | 10.0 | 15.0 | 0.00 | 0.00 | 0.00 | 96 | 1011.3 |
| 20260831121204 | 55 | 272 | 10.0 | 16.0 | 0.00 | 0.00 | 0.00 | 95 | 1011.2 |
| 20260831120603 | 55 | 269 | 11.0 | 22.0 | 0.00 | 0.00 | 0.00 | 95 | 1011.2 |
| 20260831120004 | 55 | 268 | 12.0 | 22.0 | 0.00 | 0.00 | 0.00 | 95 | 1011.1 |
| 20260831115403 | 55 | 265 | 13.0 | 19.0 | 0.00 | 0.00 | 0.00 | 95 | 1011.0 |
| 20260831114803 | 55 | 268 | 12.0 | 19.0 | 0.00 | 0.00 | 0.00 | 95 | 1011.1 |
| 20260831114203 | 55 | 269 | 12.0 | 20.0 | 0.00 | 0.00 | 0.00 | 95 | 1011.1 |
| 20260831113603 | 55 | 268 | 12.0 | 18.0 | 0.00 | 0.00 | 0.00 | 95 | 1011.1 |
| 20260831113003 | 55 | 266 | 13.0 | 19.0 | 0.00 | 0.00 | 0.00 | 95 | 1011.1 |
| 20260831112403 | 55 | 265 | 12.0 | 19.0 | 0.00 | 0.00 | 0.00 | 95 | 1011.1 |
| 20260831111803 | 55 | 264 | 10.0 | 16.0 | 0.00 | 0.00 | 0.00 | 95 | 1011.1 |
| 20260831111203 | 55 | 267 | 10.0 | 17.0 | 0.00 | 0.00 | 0.00 | 95 | 1011.2 |
| 20260831110603 | 55 | 266 | 10.0 | 18.0 | 0.00 | 0.00 | 0.00 | 95 | 1011.2 |
| 20260831110004 | 55 | 265 | 10.0 | 18.0 | 0.00 | 0.00 | 0.00 | 95 | 1011.1 |
| 20260831105403 | 55 | 264 | 10.0 | 16.0 | 0.00 | 0.00 | 0.00 | 95 | 1011.2 |
| 20260831104803 | 55 | 265 | 10.0 | 17.0 | 0.00 | 0.00 | 0.00 | 96 | 1011.1 |
| 20260831104203 | 55 | 267 | 10.0 | 17.0 | 0.00 | 0.00 | 0.00 | 95 | 1011.1 |
| 20260831103603 | 55 | 270 | 10.0 | 14.0 | 0.00 | 0.00 | 0.00 | 95 | 1011.2 |
| 20260831103003 | 55 | 271 | 10.0 | 17.0 | 0.00 | 0.00 | 0.00 | 95 | 1011.2 |
| 20260831102403 | 55 | 271 | 9.0 | 17.0 | 0.00 | 0.00 | 0.00 | 95 | 1011.1 |
| 20260831101804 | 55 | 270 | 9.0 | 15.0 | 0.00 | 0.00 | 0.00 | 95 | 1011.0 |
| 20260831101204 | 55 | 270 | 8.0 | 15.0 | 0.00 | 0.00 | 0.00 | 95 | 1011.1 |
| 20260831100604 | 55 | 271 | 8.0 | 13.0 | 0.00 | 0.00 | 0.00 | 95 | 1011.0 |
| 20260831100004 | 55 | 269 | 8.0 | 13.0 | 0.00 | 0.00 | 0.00 | 95 | 1011.0 |
| 20260831095404 | 55 | 267 | 8.0 | 11.0 | 0.00 | 0.00 | 0.00 | 95 | 1010.9 |
| 20260831094804 | 55 | 270 | 8.0 | 12.0 | 0.00 | 0.00 | 0.00 | 95 | 1011.1 |
| 20260831094203 | 55 | 270 | 8.0 | 12.0 | 0.00 | 0.00 | 0.00 | 96 | 1010.9 |
| 20260831093604 | 55 | 269 | 7.0 | 12.0 | 0.00 | 0.00 | 0.00 | 96 | 1010.9 |
| 20260831093004 | 55 | 267 | 8.0 | 12.0 | 0.00 | 0.00 | 0.00 | 96 | 1011.0 |
| 20260831092403 | 55 | 266 | 7.0 | 12.0 | 0.00 | 0.00 | 0.00 | 96 | 1011.0 |
| 20260831091804 | 55 | 267 | 7.0 | 12.0 | 0.00 | 0.00 | 0.00 | 96 | 1011.1 |
| 20260831091203 | 55 | 268 | 7.0 | 12.0 | 0.00 | 0.00 | 0.00 | 96 | 1011.0 |
| 20260831090603 | 55 | 269 | 7.0 | 11.0 | 0.00 | 0.00 | 0.00 | 96 | 1010.9 |
| 20260831090003 | 55 | 266 | 8.0 | 12.0 | 0.00 | 0.00 | 0.00 | 96 | 1011.0 |
| 20260831085403 | 55 | 266 | 8.0 | 12.0 | 0.00 | 0.00 | 0.00 | 96 | 1011.0 |
| 20260831084803 | 55 | 268 | 8.0 | 13.0 | 0.00 | 0.00 | 0.00 | 96 | 1011.1 |
| 20260831084203 | 55 | 267 | 9.0 | 13.0 | 0.00 | 0.00 | 0.00 | 96 | 1011.1 |
| 20260831083603 | 55 | 268 | 8.0 | 13.0 | 0.00 | 0.00 | 0.00 | 96 | 1011.1 |
| 20260831083003 | 55 | 269 | 8.0 | 12.0 | 0.00 | 0.00 | 0.00 | 96 | 1011.2 |
| 20260831082403 | 55 | 268 | 8.0 | 11.0 | 0.00 | 0.00 | 0.00 | 96 | 1011.2 |
| 20260831081803 | 55 | 266 | 7.0 | 11.0 | 0.00 | 0.00 | 0.00 | 96 | 1011.2 |
| 20260831081203 | 55 | 268 | 7.0 | 10.0 | 0.00 | 0.00 | 0.00 | 96 | 1011.3 |
| 20260831080604 | 55 | 267 | 6.0 | 12.0 | 0.00 | 0.00 | 0.00 | 96 | 1011.3 |
| 20260831080004 | 55 | 266 | 7.0 | 12.0 | 0.00 | 0.00 | 0.00 | 96 | 1011.4 |
| 20260831075404 | 55 | 269 | 6.0 | 11.0 | 0.00 | 0.00 | 0.00 | 96 | 1011.4 |
| 20260831074804 | 55 | 266 | 5.0 | 8.0 | 0.00 | 0.00 | 0.00 | 96 | 1011.4 |
| 20260831074203 | 54 | 268 | 6.0 | 11.0 | 0.00 | 0.00 | 0.00 | 96 | 1011.3 |
| 20260831073604 | 54 | 267 | 7.0 | 12.0 | 0.00 | 0.00 | 0.00 | 96 | 1011.3 |
| 20260831073003 | 54 | 262 | 8.0 | 12.0 | 0.00 | 0.00 | 0.00 | 96 | 1011.3 |
| 20260831072403 | 54 | 261 | 8.0 | 12.0 | 0.00 | 0.00 | 0.00 | 96 | 1011.3 |
| 20260831071803 | 54 | 261 | 9.0 | 13.0 | 0.00 | 0.00 | 0.00 | 96 | 1011.2 |
| 20260831071204 | 54 | 262 | 9.0 | 14.0 | 0.00 | 0.00 | 0.00 | 96 | 1011.3 |
| 20260831070603 | 54 | 261 | 9.0 | 14.0 | 0.00 | 0.00 | 0.00 | 96 | 1011.3 |
| 20260831070003 | 54 | 261 | 9.0 | 14.0 | 0.00 | 0.00 | 0.00 | 96 | 1011.3 |
| 20260831065403 | 54 | 261 | 9.0 | 13.0 | 0.00 | 0.00 | 0.00 | 96 | 1011.3 |
| 20260831064803 | 54 | 261 | 8.0 | 13.0 | 0.00 | 0.00 | 0.00 | 96 | 1011.3 |
| 20260831064203 | 54 | 262 | 9.0 | 14.0 | 0.00 | 0.00 | 0.00 | 96 | 1011.3 |
| 20260831063603 | 54 | 261 | 8.0 | 14.0 | 0.00 | 0.00 | 0.00 | 97 | 1011.3 |
| 20260831063003 | 54 | 262 | 7.0 | 11.0 | 0.00 | 0.00 | 0.00 | 96 | 1011.3 |
| 20260831062403 | 54 | 263 | 8.0 | 14.0 | 0.00 | 0.00 | 0.00 | 96 | 1011.3 |
| 20260831061803 | 54 | 261 | 9.0 | 14.0 | 0.00 | 0.00 | 0.00 | 97 | 1011.3 |
| 20260831061203 | 54 | 262 | 8.0 | 13.0 | 0.00 | 0.00 | 0.00 | 96 | 1011.3 |
| 20260831060603 | 54 | 262 | 8.0 | 14.0 | 0.00 | 0.00 | 0.00 | 96 | 1011.3 |
| 20260831060003 | 55 | 261 | 9.0 | 15.0 | 0.00 | 0.00 | 0.00 | 96 | 1011.3 |
| 20260831055403 | 55 | 259 | 9.0 | 15.0 | 0.00 | 0.00 | 0.00 | 96 | 1011.3 |